tititudorancea.com
Ararat Weather - Ararat,Victoria,Australia
 
Daily Summary for August 05, 2015 Units:  Metric    English   Both
« Previous Day
Next Day »
Daily Weekly Monthly Yearly Custom
  Current: High: Low: Average:
Temperature: 5.6 °C 10.1 °C 5.6 °C 7.4 °C
Dew Point: 2.8 °C 5.6 °C 2.4 °C 4 °C
Humidity: 82% 89% 66% 79%
Wind Speed: 6.1km/h 23.3km/h 0km/h 7.6km/h
Wind Gust: 18.3km/h 37.8km/h - -
WindWSW - - WSW
Pressure: 1012.1 hPa 1012.1 hPa 1007 hPa -
Precipitation: 2.29 mm      
Historical Graphs
 
 
Ararat weather Find more about Weather in Ararat, AU


 




 


Tabular Data for August 05, 2015
Time Temperature Dew Point Pressure Wind Wind Speed Wind Gust Humidity Rainfall Rate (Hourly)
00:01 7.4 °C 5.6 °C 1009.4 hPa West 7.2 km/h 12.2 km/h 88% 1.02 mm
00:06 7.4 °C 5.6 °C 1009.7 hPa West 6.1 km/h 12.2 km/h 88% 1.02 mm
00:11 7.3 °C 5.5 °C 1009.7 hPa WNW 6.1 km/h 14.8 km/h 88% 1.02 mm
00:16 7.3 °C 5.4 °C 1009.4 hPa WNW 3.5 km/h 14.8 km/h 88% 1.02 mm
00:21 7.2 °C 5.3 °C 1009.4 hPa West 3.5 km/h 11.1 km/h 88% 1.02 mm
00:26 7.1 °C 5.2 °C 1009 hPa NW 6.1 km/h 11.1 km/h 88% 1.02 mm
00:31 7.2 °C 5.4 °C 1009 hPa NW 6.1 km/h 11.1 km/h 89% 0.76 mm
00:36 7.2 °C 5.4 °C 1009 hPa WNW 7.2 km/h 12.2 km/h 89% 0.76 mm
00:41 7.2 °C 5.4 °C 1009 hPa WNW 5 km/h 12.2 km/h 89% 0.76 mm
00:46 7.3 °C 5.4 °C 1008.7 hPa NW 8.7 km/h 18.3 km/h 88% 0.25 mm
00:51 7.3 °C 5.4 °C 1008.7 hPa NW 6.1 km/h 18.3 km/h 88% 0.25 mm
00:56 7.3 °C 5.2 °C 1009 hPa NW 6.1 km/h 17.2 km/h 87% 0 mm
01:01 7.3 °C 5.2 °C 1009 hPa NW 9.7 km/h 17.2 km/h 86% 0 mm
01:06 7.3 °C 5.2 °C 1008.7 hPa NW 6.1 km/h 17.2 km/h 86% 0 mm
01:11 7.3 °C 5.2 °C 1009 hPa NW 6.1 km/h 17.2 km/h 86% 0 mm
01:16 7.3 °C 5.2 °C 1008.7 hPa NW 8.7 km/h 17.2 km/h 86% 0.25 mm
01:21 7.3 °C 5.2 °C 1008.7 hPa NW 6.1 km/h 18.3 km/h 86% 0.25 mm
01:26 7.3 °C 5.2 °C 1008.7 hPa NW 5 km/h 18.3 km/h 86% 0.25 mm
01:31 7.3 °C 5.2 °C 1008.7 hPa NW 6.1 km/h 17.2 km/h 86% 0.25 mm
01:36 7.3 °C 5.1 °C 1008.7 hPa WNW 5 km/h 17.2 km/h 86% 0.25 mm
01:41 7.3 °C 5.1 °C 1008.7 hPa NW 5 km/h 13.4 km/h 86% 0.25 mm
01:46 7.3 °C 5.1 °C 1008.4 hPa WNW 3.5 km/h 14.8 km/h 86% 0.25 mm
01:51 7.2 °C 4.9 °C 1008.4 hPa West 6.1 km/h 14.8 km/h 86% 0.25 mm
01:56 7.2 °C 4.9 °C 1008.4 hPa West 5 km/h 11.1 km/h 86% 0.25 mm
02:01 7.1 °C 4.9 °C 1008.4 hPa WNW 5 km/h 11.1 km/h 86% 0.25 mm
02:06 6.9 °C 4.8 °C 1008.4 hPa WNW 3.5 km/h 11.1 km/h 86% 0.25 mm
02:12 6.9 °C 4.8 °C 1008 hPa WNW 2.6 km/h 11.1 km/h 86% 0.25 mm
02:17 6.8 °C 4.7 °C 1008 hPa WNW 5 km/h 8.7 km/h 86% 0 mm
02:22 6.8 °C 4.7 °C 1008 hPa NW 2.6 km/h 8.7 km/h 86% 0 mm
02:27 6.8 °C 4.7 °C 1008 hPa NW 5 km/h 8.7 km/h 86% 0 mm
02:32 6.8 °C 4.8 °C 1007.7 hPa NW 7.2 km/h 12.2 km/h 87% 0 mm
02:37 6.9 °C 4.9 °C 1007.7 hPa WNW 8.7 km/h 12.2 km/h 87% 0 mm
02:42 7.1 °C 4.9 °C 1007.7 hPa West 5 km/h 12.2 km/h 86% 0 mm
02:47 7.2 °C 4.9 °C 1007.7 hPa WNW 5 km/h 12.2 km/h 86% 0 mm
02:52 7.2 °C 4.8 °C 1007.7 hPa NW 5 km/h 12.2 km/h 85% 0 mm
02:57 7.2 °C 4.8 °C 1008 hPa WNW 3.5 km/h 12.2 km/h 85% 0 mm
03:02 7.2 °C 4.8 °C 1007.7 hPa WNW 2.6 km/h 9.7 km/h 85% 0 mm
03:07 7.2 °C 4.8 °C 1007.7 hPa West 3.5 km/h 9.7 km/h 85% 0 mm
03:12 7.2 °C 4.8 °C 1007.3 hPa WNW 2.6 km/h 9.7 km/h 85% 0 mm
03:17 7.2 °C 4.8 °C 1007.3 hPa NW 2.6 km/h 8.7 km/h 85% 0 mm
03:22 7.2 °C 4.8 °C 1007.3 hPa NW 3.5 km/h 9.7 km/h 85% 0 mm
03:27 7.2 °C 4.8 °C 1007 hPa NW 2.6 km/h 9.7 km/h 85% 0 mm
03:32 7.2 °C 4.8 °C 1007 hPa NW 3.5 km/h 8.7 km/h 85% 0 mm
03:37 7.2 °C 4.8 °C 1007 hPa WNW 3.5 km/h 11.1 km/h 85% 0 mm
03:42 7.3 °C 4.9 °C 1007 hPa WNW 2.6 km/h 11.1 km/h 85% 0 mm
03:47 7.3 °C 4.9 °C 1007 hPa NW 3.5 km/h 8.7 km/h 85% 0.25 mm
03:52 7.2 °C 4.9 °C 1007 hPa NW 1.1 km/h 8.7 km/h 86% 0.25 mm
03:57 7.2 °C 4.9 °C 1007 hPa WNW 1.1 km/h 7.2 km/h 86% 0.25 mm
04:02 7.2 °C 4.9 °C 1007 hPa West 1.1 km/h 7.2 km/h 86% 0.25 mm
04:07 7.2 °C 4.9 °C 1007 hPa West 1.1 km/h 5 km/h 86% 0.25 mm
04:12 7.2 °C 4.9 °C 1007 hPa Calm   5 km/h 86% 0.25 mm
04:17 7.2 °C 4.9 °C 1007 hPa WNW 1.1 km/h 3.5 km/h 86% 0.25 mm
04:22 7.2 °C 5.1 °C 1007 hPa West 5 km/h 13.4 km/h 87% 0.76 mm
04:27 7.2 °C 5.1 °C 1007 hPa West 1.1 km/h 13.4 km/h 87% 0.76 mm
04:32 7.2 °C 5.1 °C 1007 hPa West 2.6 km/h 12.2 km/h 87% 0.76 mm
04:37 7.2 °C 5.1 °C 1007.3 hPa WSW 3.5 km/h 7.2 km/h 87% 0.76 mm
04:42 7.3 °C 5.4 °C 1007 hPa West 8.7 km/h 15.8 km/h 88% 0.76 mm
04:47 7.2 °C 5.3 °C 1007 hPa West 2.6 km/h 15.8 km/h 88% 0.25 mm
04:53 7.2 °C 5.3 °C 1007 hPa WSW 12.2 km/h 21.9 km/h 88% 0.76 mm
04:58 7.3 °C 5.2 °C 1007 hPa SW 5 km/h 27 km/h 87% 0.76 mm
05:03 7.2 °C 5.1 °C 1007.3 hPa WSW 6.1 km/h 27 km/h 87% 0.76 mm
05:08 7.3 °C 5.2 °C 1007.3 hPa WSW 9.7 km/h 19.5 km/h 87% 0.76 mm
05:13 7.2 °C 5.1 °C 1007.3 hPa WSW 8.7 km/h 25.6 km/h 87% 0.76 mm
05:18 7.2 °C 5.1 °C 1007.3 hPa WSW 5 km/h 25.6 km/h 87% 0.25 mm
05:23 7.1 °C 5.2 °C 1007.3 hPa WSW 7.2 km/h 23.3 km/h 88% 0.25 mm
05:28 7.1 °C 5.2 °C 1007 hPa WSW 3.5 km/h 15.8 km/h 88% 0.25 mm
05:33 7.1 °C 5.2 °C 1007 hPa WSW 5 km/h 14.8 km/h 88% 0.25 mm
05:38 7.1 °C 5.2 °C 1007.3 hPa WSW 3.5 km/h 12.2 km/h 88% 0.25 mm
05:43 7.1 °C 5.2 °C 1007.3 hPa WSW 6.1 km/h 13.4 km/h 88% 0.25 mm
05:48 7.1 °C 5.2 °C 1007 hPa West 3.5 km/h 13.4 km/h 88% 0.25 mm
05:53 7.1 °C 5.2 °C 1007 hPa West 7.2 km/h 13.4 km/h 88% 0 mm
05:58 7.1 °C 5.1 °C 1007.3 hPa West 7.2 km/h 15.8 km/h 87% 0 mm
06:03 7.1 °C 5.1 °C 1007.3 hPa West 5 km/h 15.8 km/h 87% 0 mm
06:08 7.1 °C 4.9 °C 1007.3 hPa West 6.1 km/h 15.8 km/h 86% 0 mm
06:13 7.1 °C 4.7 °C 1007.3 hPa West 7.2 km/h 15.8 km/h 85% 0 mm
06:18 7.2 °C 4.6 °C 1007.3 hPa West 8.7 km/h 17.2 km/h 84% 0 mm
06:23 7.2 °C 4.6 °C 1007.3 hPa West 5 km/h 17.2 km/h 84% 0 mm
06:28 7.1 °C 4.6 °C 1007.7 hPa West 3.5 km/h 17.2 km/h 84% 0 mm
06:33 7.1 °C 4.4 °C 1007.7 hPa West 2.6 km/h 13.4 km/h 83% 0 mm
06:38 7.1 °C 4.4 °C 1007.7 hPa West 3.5 km/h 15.8 km/h 83% 0 mm
06:43 7.2 °C 4.3 °C 1007.7 hPa West 6.1 km/h 15.8 km/h 82% 0 mm
06:48 7.2 °C 4.4 °C 1007.7 hPa WSW 7.2 km/h 15.8 km/h 83% 0 mm
06:53 7.1 °C 4.6 °C 1007.7 hPa SW 5 km/h 15.8 km/h 84% 0.25 mm
06:58 6.9 °C 4.4 °C 1008 hPa WSW 5 km/h 14.8 km/h 84% 0.25 mm
07:03 6.8 °C 4.5 °C 1008 hPa WSW 1.1 km/h 11.1 km/h 85% 0.25 mm
07:08 6.8 °C 4.5 °C 1007.7 hPa WSW 3.5 km/h 9.7 km/h 85% 0.25 mm
07:13 6.8 °C 4.5 °C 1008 hPa WSW 3.5 km/h 11.1 km/h 85% 0.25 mm
07:18 6.8 °C 4.5 °C 1007.7 hPa WSW 5 km/h 11.1 km/h 85% 0.25 mm
07:23 6.8 °C 4.5 °C 1008 hPa West 3.5 km/h 13.4 km/h 85% 0.25 mm
07:28 6.8 °C 4.5 °C 1008 hPa WSW 6.1 km/h 19.5 km/h 85% 0.25 mm
07:33 6.8 °C 4.5 °C 1008 hPa WSW 5 km/h 19.5 km/h 85% 0.76 mm
07:38 6.8 °C 4.4 °C 1008 hPa WSW 8.7 km/h 19.5 km/h 85% 0.76 mm
07:43 6.7 °C 4.3 °C 1008 hPa West 11.1 km/h 25.6 km/h 85% 1.02 mm
07:48 6.7 °C 4.3 °C 1008.4 hPa WNW 7.2 km/h 25.6 km/h 85% 1.02 mm
07:53 6.6 °C 4.2 °C 1008.4 hPa West 7.2 km/h 18.3 km/h 85% 0.76 mm
07:58 6.6 °C 4.2 °C 1008.4 hPa West 7.2 km/h 15.8 km/h 85% 0.76 mm
08:03 6.4 °C 3.9 °C 1008.4 hPa WSW 12.2 km/h 20.9 km/h 84% 0.76 mm
08:08 6.4 °C 3.8 °C 1008.4 hPa SW 11.1 km/h 20.9 km/h 83% 0.76 mm
08:13 6.6 °C 3.7 °C 1008.4 hPa WSW 5 km/h 21.9 km/h 82% 0.76 mm
08:18 6.6 °C 3.7 °C 1009 hPa WSW 9.7 km/h 21.9 km/h 82% 0.76 mm
08:23 6.7 °C 3.8 °C 1008.7 hPa WSW 2.6 km/h 27 km/h 82% 0.76 mm
08:28 6.7 °C 3.8 °C 1008.7 hPa SW 9.7 km/h 27 km/h 82% 0.76 mm
08:33 6.8 °C 4.1 °C 1009 hPa SW 8.7 km/h 21.9 km/h 83% 0.25 mm
08:39 6.8 °C 4.2 °C 1009 hPa WSW 11.1 km/h 18.3 km/h 83% 0.25 mm
08:44 6.9 °C 4.3 °C 1009 hPa WSW 11.1 km/h 20.9 km/h 83% 0 mm
08:49 6.9 °C 4.1 °C 1009 hPa WSW 1.1 km/h 20.9 km/h 82% 0 mm
08:54 7.1 °C 4.2 °C 1009 hPa WSW 8.7 km/h 18.3 km/h 82% 0 mm
08:59 7.2 °C 4.4 °C 1009 hPa WSW 6.1 km/h 15.8 km/h 83% 0 mm
09:04 7.2 °C 4.3 °C 1009 hPa West 11.1 km/h 23.3 km/h 82% 0 mm
09:09 7.2 °C 4.1 °C 1009 hPa West 7.2 km/h 23.3 km/h 81% 0 mm
09:14 7.2 °C 4.3 °C 1009.4 hPa WSW 7.2 km/h 21.9 km/h 82% 0 mm
09:19 7.1 °C 4.2 °C 1009.4 hPa WSW 12.2 km/h 24.5 km/h 82% 0 mm
09:24 6.9 °C 4.3 °C 1009 hPa WSW 5 km/h 25.6 km/h 83% 0 mm
09:29 6.9 °C 4.3 °C 1009 hPa WSW 11.1 km/h 25.6 km/h 83% 0 mm
09:34 6.8 °C 4.2 °C 1009 hPa SW 9.7 km/h 24.5 km/h 83% 0 mm
09:39 7.1 °C 4.4 °C 1009 hPa WSW 6.1 km/h 18.3 km/h 83% 0 mm
09:44 7.3 °C 4.2 °C 1009 hPa SW 9.7 km/h 19.5 km/h 81% 0 mm
09:49 7.3 °C 3.9 °C 1009 hPa SW 11.1 km/h 21.9 km/h 79% 0 mm
09:54 7.6 °C 4.2 °C 1009.4 hPa WSW 5 km/h 21.9 km/h 79% 0 mm
09:59 7.7 °C 4.2 °C 1009.4 hPa WSW 7.2 km/h 19.5 km/h 78% 0 mm
10:04 7.8 °C 4.1 °C 1009.4 hPa WSW 7.2 km/h 18.3 km/h 77% 0 mm
10:09 8.1 °C 4.3 °C 1009.4 hPa West 5 km/h 18.3 km/h 77% 0 mm
10:14 8.1 °C 3.9 °C 1009.4 hPa WSW 8.7 km/h 29.5 km/h 75% 0 mm
10:19 7.9 °C 3.6 °C 1009.4 hPa WSW 13.4 km/h 29.5 km/h 74% 0 mm
10:24 8.1 °C 3.8 °C 1009.4 hPa WSW 14.8 km/h 28 km/h 74% 0 mm
10:34 7.8 °C 3.7 °C 1009.4 hPa West 14.8 km/h 34.3 km/h 75% 0 mm
10:39 7.7 °C 3.9 °C 1009.7 hPa West 8.7 km/h 34.3 km/h 77% 0 mm
10:44 7.7 °C 3.9 °C 1009.7 hPa WSW 13.4 km/h 28 km/h 77% 0 mm
10:49 7.7 °C 3.8 °C 1009.7 hPa WSW 11.1 km/h 28 km/h 76% 0 mm
10:54 8.1 °C 4.3 °C 1009.7 hPa SW 9.7 km/h 21.9 km/h 77% 0 mm
10:59 8.3 °C 3.8 °C 1009.7 hPa WSW 11.1 km/h 27 km/h 73% 0 mm
11:04 8.5 °C 3.9 °C 1009.7 hPa WSW 8.7 km/h 27 km/h 73% 0 mm
11:09 8.9 °C 4.2 °C 1009.7 hPa SW 12.2 km/h 27 km/h 72% 0 mm
11:14 9 °C 3.6 °C 1009.7 hPa SW 15.8 km/h 30.6 km/h 69% 0 mm
11:19 8.9 °C 3.7 °C 1009.7 hPa SW 19.5 km/h 35.6 km/h 70% 0 mm
11:24 8.2 °C 3.7 °C 1010 hPa SW 14.8 km/h 35.6 km/h 73% 0 mm
11:29 7.7 °C 3.4 °C 1010 hPa WSW 11.1 km/h 28 km/h 74% 0 mm
11:34 7.7 °C 3.7 °C 1010 hPa WNW 7.2 km/h 28 km/h 76% 0 mm
11:39 7.7 °C 3.6 °C 1009.7 hPa WSW 9.7 km/h 27 km/h 75% 0 mm
11:44 8.1 °C 3.9 °C 1009.4 hPa WSW 8.7 km/h 24.5 km/h 75% 0 mm
11:49 8.7 °C 4.3 °C 1009.7 hPa WSW 9.7 km/h 24.5 km/h 74% 0 mm
11:54 9.2 °C 4.6 °C 1009.4 hPa WSW 7.2 km/h 23.3 km/h 73% 0 mm
11:59 9.3 °C 4.3 °C 1009.4 hPa WSW 7.2 km/h 21.9 km/h 71% 0 mm
12:04 9 °C 3.6 °C 1009.4 hPa SW 14.8 km/h 34.3 km/h 69% 0 mm
12:09 8.8 °C 3.7 °C 1009.7 hPa SW 19.5 km/h 34.3 km/h 70% 0 mm
12:14 8.4 °C 3.7 °C 1009.4 hPa SW 8.7 km/h 34.3 km/h 72% 0 mm
12:19 8.3 °C 3.9 °C 1009.4 hPa WSW 6.1 km/h 29.5 km/h 74% 0 mm
12:24 8.5 °C 3.6 °C 1009.4 hPa WSW 12.2 km/h 31.7 km/h 71% 0 mm
12:29 8.9 °C 4.3 °C 1009.4 hPa WSW 9.7 km/h 31.7 km/h 73% 0 mm
12:34 9.6 °C 4.6 °C 1009.4 hPa West 5 km/h 27 km/h 71% 0 mm
12:39 10 °C 4.4 °C 1009 hPa West 9.7 km/h 18.3 km/h 68% 0 mm
12:44 10 °C 4.4 °C 1009 hPa SW 15.8 km/h 30.6 km/h 68% 0 mm
12:49 9.4 °C 3.6 °C 1009.4 hPa SSW 15.8 km/h 36.7 km/h 67% 0 mm
12:54 9 °C 3.8 °C 1009.4 hPa SW 23.3 km/h 36.7 km/h 70% 0 mm
12:59 8.2 °C 3.7 °C 1009.4 hPa WSW 11.1 km/h 35.6 km/h 73% 0 mm
13:04 7.9 °C 3.8 °C 1009.4 hPa SW 11.1 km/h 35.6 km/h 75% 0 mm
13:09 7.7 °C 3.6 °C 1009.4 hPa WSW 13.4 km/h 29.5 km/h 75% 0 mm
13:14 7.9 °C 3.9 °C 1009.4 hPa WSW 9.7 km/h 29.5 km/h 76% 0 mm
13:19 8.2 °C 3.9 °C 1009.4 hPa SW 7.2 km/h 24.5 km/h 74% 0 mm
13:24 8.7 °C 4.3 °C 1009.4 hPa SW 5 km/h 25.6 km/h 74% 0 mm
13:29 9.1 °C 4.1 °C 1009.4 hPa SW 8.7 km/h 25.6 km/h 71% 0 mm
13:34 9.2 °C 3.6 °C 1009.4 hPa SW 13.4 km/h 21.9 km/h 68% 0 mm
13:39 9.1 °C 3.5 °C 1009.4 hPa SW 8.7 km/h 28 km/h 68% 0 mm
13:44 9.1 °C 3.7 °C 1009.4 hPa WSW 8.7 km/h 28 km/h 69% 0 mm
13:49 9 °C 3.8 °C 1009.4 hPa WSW 3.5 km/h 24.5 km/h 70% 0 mm
13:54 9.1 °C 3.5 °C 1009 hPa WSW 14.8 km/h 29.5 km/h 68% 0 mm
13:59 9.2 °C 3.6 °C 1009 hPa SW 12.2 km/h 29.5 km/h 68% 0 mm
14:04 9.3 °C 3.7 °C 1009 hPa WSW 6.1 km/h 27 km/h 68% 0 mm
14:09 9.3 °C 3.7 °C 1009 hPa WSW 14.8 km/h 25.6 km/h 68% 0 mm
14:14 9.5 °C 4.1 °C 1009 hPa WSW 13.4 km/h 27 km/h 69% 0 mm
14:19 9.8 °C 4.2 °C 1009 hPa WSW 8.7 km/h 27 km/h 68% 0 mm
14:24 10 °C 4.2 °C 1009 hPa WSW 12.2 km/h 25.6 km/h 67% 0 mm
14:29 10.1 °C 4.1 °C 1009 hPa West 11.1 km/h 25.6 km/h 66% 0 mm
14:34 9.3 °C 3.5 °C 1009 hPa SW 11.1 km/h 37.8 km/h 67% 0 mm
14:39 8.5 °C 3.2 °C 1009.4 hPa SSW 13.4 km/h 37.8 km/h 69% 0 mm
14:44 8.1 °C 3.6 °C 1009.4 hPa SW 5 km/h 27 km/h 73% 0 mm
14:49 8.1 °C 3.3 °C 1009.4 hPa SW 9.7 km/h 24.5 km/h 72% 0 mm
14:54 8.1 °C 3.5 °C 1009.4 hPa SW 15.8 km/h 20.9 km/h 73% 0 mm
14:59 8.1 °C 3.6 °C 1009.4 hPa WSW 3.5 km/h 20.9 km/h 73% 0 mm
15:04 8.2 °C 3.7 °C 1009.4 hPa WSW 15.8 km/h 24.5 km/h 73% 0 mm
15:09 8.2 °C 3.7 °C 1009.7 hPa WSW 7.2 km/h 24.5 km/h 73% 0 mm
15:14 8.2 °C 3.9 °C 1009.7 hPa SW 9.7 km/h 24.5 km/h 74% 0 mm
15:19 8.3 °C 3.9 °C 1009.7 hPa SW 2.6 km/h 18.3 km/h 74% 0 mm
15:24 8.3 °C 3 °C 1009.7 hPa SW 13.4 km/h 18.3 km/h 69% 0 mm
15:29 8.2 °C 2.4 °C 1009.7 hPa SW 8.7 km/h 23.3 km/h 67% 0 mm
15:34 8.4 °C 2.7 °C 1010 hPa SW 11.1 km/h 23.3 km/h 67% 0 mm
15:39 8.5 °C 2.8 °C 1009.7 hPa SW 9.7 km/h 27 km/h 67% 0 mm
15:44 8.7 °C 2.9 °C 1009.7 hPa SW 13.4 km/h 27 km/h 67% 0 mm
15:49 8.7 °C 2.7 °C 1010 hPa SW 9.7 km/h 25.6 km/h 66% 0 mm
15:54 8.6 °C 2.6 °C 1009.7 hPa SW 11.1 km/h 27 km/h 66% 0 mm
15:59 8.5 °C 2.6 °C 1009.7 hPa SW 9.7 km/h 27 km/h 66% 0 mm
16:04 8.5 °C 2.8 °C 1010 hPa WSW 9.7 km/h 27 km/h 67% 0 mm
16:09 8.4 °C 2.7 °C 1010 hPa WSW 8.7 km/h 23.3 km/h 67% 0 mm
16:14 8.3 °C 2.6 °C 1010 hPa SW 11.1 km/h 23.3 km/h 67% 0 mm
16:20 8.1 °C 2.6 °C 1010 hPa SW 8.7 km/h 23.3 km/h 68% 0 mm
16:25 8.1 °C 2.7 °C 1010 hPa SW 9.7 km/h 28 km/h 69% 0 mm
16:30 8.1 °C 2.7 °C 1010.4 hPa SW 7.2 km/h 28 km/h 69% 0 mm
16:35 8.1 °C 3 °C 1010.4 hPa SW 2.6 km/h 23.3 km/h 70% 0 mm
16:40 8.1 °C 2.9 °C 1010.4 hPa WSW 11.1 km/h 24.5 km/h 70% 0 mm
16:45 7.8 °C 2.9 °C 1010.4 hPa SW 11.1 km/h 25.6 km/h 71% 0 mm
16:50 7.7 °C 2.7 °C 1010.4 hPa SW 6.1 km/h 25.6 km/h 71% 0 mm
16:55 7.6 °C 2.6 °C 1010.4 hPa SW 12.2 km/h 24.5 km/h 71% 0 mm
17:00 7.4 °C 2.6 °C 1010.4 hPa SW 6.1 km/h 24.5 km/h 71% 0 mm
17:05 7.3 °C 2.6 °C 1010.4 hPa SW 7.2 km/h 19.5 km/h 72% 0 mm
17:10 7.3 °C 2.6 °C 1010.7 hPa SW 9.7 km/h 20.9 km/h 72% 0 mm
17:15 7.3 °C 2.6 °C 1010.4 hPa WSW 9.7 km/h 20.9 km/h 72% 0 mm
17:20 7.3 °C 2.6 °C 1010.7 hPa WSW 8.7 km/h 18.3 km/h 72% 0 mm
17:25 7.2 °C 2.7 °C 1010.4 hPa SW 8.7 km/h 15.8 km/h 73% 0 mm
17:30 7.2 °C 2.7 °C 1010.4 hPa SW 8.7 km/h 18.3 km/h 73% 0 mm
17:35 7.1 °C 3.1 °C 1010.7 hPa WSW 9.7 km/h 20.9 km/h 76% 0 mm
17:40 6.8 °C 3.3 °C 1010.7 hPa WSW 13.4 km/h 25.6 km/h 78% 0 mm
17:45 6.8 °C 3.4 °C 1010.7 hPa WSW 8.7 km/h 25.6 km/h 79% 0 mm
17:50 6.7 °C 3.4 °C 1010.7 hPa SW 8.7 km/h 25.6 km/h 80% 0 mm
17:55 6.6 °C 3.2 °C 1010.7 hPa WSW 9.7 km/h 19.5 km/h 79% 0 mm
18:00 6.4 °C 2.7 °C 1010.7 hPa WSW 7.2 km/h 17.2 km/h 77% 0 mm
18:05 6.4 °C 2.7 °C 1010.7 hPa WSW 11.1 km/h 21.9 km/h 77% 0 mm
18:10 6.4 °C 2.6 °C 1011.1 hPa WSW 12.2 km/h 21.9 km/h 76% 0 mm
18:15 6.4 °C 2.4 °C 1011.1 hPa WSW 3.5 km/h 21.9 km/h 76% 0 mm
18:20 6.3 °C 2.6 °C 1011.1 hPa SW 5 km/h 20.9 km/h 77% 0 mm
18:25 6.3 °C 2.6 °C 1011.4 hPa SW 7.2 km/h 14.8 km/h 77% 0 mm
18:30 6.2 °C 2.4 °C 1011.1 hPa SW 5 km/h 14.8 km/h 77% 0 mm
18:35 6.2 °C 2.6 °C 1011.4 hPa SW 6.1 km/h 12.2 km/h 78% 0 mm
18:40 6.1 °C 2.6 °C 1011.4 hPa SW 6.1 km/h 13.4 km/h 78% 0 mm
18:45 6.1 °C 2.6 °C 1011.4 hPa SW 2.6 km/h 14.8 km/h 78% 0 mm
18:51 6.1 °C 2.7 °C 1011.7 hPa SW 7.2 km/h 14.8 km/h 79% 0 mm
18:55 6.1 °C 2.7 °C 1011.7 hPa SW 5 km/h 12.2 km/h 79% 0 mm
19:01 6.1 °C 2.7 °C 1011.7 hPa SW 2.6 km/h 11.1 km/h 79% 0 mm
19:06 6.1 °C 2.7 °C 1011.7 hPa WSW 8.7 km/h 13.4 km/h 79% 0 mm
19:11 6.1 °C 2.7 °C 1011.7 hPa SW 6.1 km/h 13.4 km/h 79% 0 mm
19:16 6.1 °C 2.7 °C 1011.7 hPa SW 7.2 km/h 14.8 km/h 79% 0 mm
19:21 6 °C 2.8 °C 1011.7 hPa WSW 12.2 km/h 18.3 km/h 80% 0 mm
19:26 6 °C 2.8 °C 1011.7 hPa WSW 2.6 km/h 18.3 km/h 80% 0 mm
19:31 5.9 °C 2.7 °C 1011.7 hPa WSW 5 km/h 18.3 km/h 80% 0 mm
19:36 5.9 °C 2.7 °C 1011.7 hPa WSW 8.7 km/h 13.4 km/h 80% 0 mm
19:41 5.8 °C 2.8 °C 1012.1 hPa WSW 5 km/h 13.4 km/h 81% 0 mm
19:46 5.8 °C 2.8 °C 1012.1 hPa WSW 3.5 km/h 13.4 km/h 81% 0 mm
19:51 5.7 °C 2.7 °C 1012.1 hPa WSW 5 km/h 9.7 km/h 81% 0 mm
19:56 5.7 °C 2.7 °C 1012.1 hPa WSW 2.6 km/h 14.8 km/h 81% 0 mm
20:01 5.7 °C 2.7 °C 1012.1 hPa SW 3.5 km/h 14.8 km/h 81% 0 mm
20:06 5.7 °C 2.8 °C 1012.1 hPa SW 5 km/h 13.4 km/h 82% 0 mm
20:11 5.6 °C 2.8 °C 1012.1 hPa WSW 3.5 km/h 13.4 km/h 82% 0 mm
20:16 5.6 °C 2.8 °C 1012.1 hPa WSW 1.1 km/h 18.3 km/h 82% 0 mm
20:21 5.6 °C 2.8 °C 1012.1 hPa WSW 6.1 km/h 18.3 km/h 82% 0 mm
www.araratweather.com - Email: contact at araratweather.com
Data created with Cumulus & bmak
Click here to send mail.


ABOUT

Live weather data from Ararat, Victoria, Australia, 3377
Data uploaded from Cumulus every 5 minutes to Weather Underground.
This site then downloads the raw data for formatting and display.
Metric and imperial data can be displayed. Graphs and historical data available.
Includes Sun and Moon times and rain image live from BOM.

Check out Ararat Weather on Facebook, Twitter and Google +

Help support ongoing costs by checking out the ads





Follow @AraratWeather